Probability
0 0 0 0 0 0 0 0 0 0 0 0 0 0 0 0 0 0 0 0 0 0 0 0 0 0 0 0 0 0 0 0 0 0 0 0 0 0
0 0 0 0 0 0 0 0 0 0 0 0 0 0 0 0 0 0 0 0 0 0 0 0 0 0 0 0 0 0 0 0 0 0 0 0 0 0
0 0 0 0 0 0 0 0 0 0 0 0 0 0 0 0 0 0 0 0 0 0 0 0 0 0 0 0 0 0 0 0 0 0 0 0 0 0
0 0 0 0 0 0 0 0 0 0 0 0 0 0 0 0 0 0 0 0 0 0 0 0 0 0 0 0 0 0 0 0 0 0 0 0 0 0
0 0 0 0 0 0 0 0 0 0 0 0 0 0 0 0 0 0 0 0 0 0 0 0 0 0 0 0 0 0 0 0 0 0 0 0 0 0
0 0 0 0 0 0 0 0 0 0 0 0 0 0 0 0 0 0 0 0 0 0 0 0 0 0 0 0 0 0 0 0 0 0 0 0 0 0
0 0 0 0 0 0 0 0 0 0 0 0 0 0 0 0 0 0 0 0 0 0 0 0 0 0 0 0 0 0 0 0 0 0 0 0 0 0
0 0 0 0 0 0 0 0 0 0 0 0 0 0 0 0 0 0 0 0 0 0 0 0 0 0 0 0 0 0 0 0 0 0 0 0 0 0
0 0 0 0 0 0 0 0 0 0 0 0 0 0 0 0 0 0 0 0 0 0 0 0 0 0 0 0 0 0 0 0 0 0 0 0 0 0
0 0 0 0 0 0 0 0 0 0 0 0 0 0 0 0 0 0 0 0 0 0 0 0 0 0 0 0 0 0 0 0 0 0 0 0 0 0
0 0 0 0 0 0 0 0 0 0 0 0 0 0 0 0 0 0 0 0 0 0 0 0 0 0 0 0 0 0 0 0 0 0 0 0 0 0
0 0 0 0 0 0 0 0 0 0 0 0 0 0 0 0 0 0 0 0 0 0 0 0 0 0 0 0 0 0 0 0 0 0 0 0 0 0
0 0 0 0 0 0 0 0 0 0 0 0 0 0 0 0 0 0 0 0 0 0 0 0 0 0 0 0 0 0 0 0 0 0 0 0 0 0
0 0 0 0 0 0 0 0 0 0 0 0 0 0 0 0 0 0 0 0 0 0 0 0 0 0 0 0 0 0 0 0 0 0 0 0 0 0
0 0 0 0 0 0 0 0 0 0 0 0 0 0 0 0 0 0 0 0 0 0 0 0 0 0 0 0 0 0 0 0 0 0 0 0 0 0
0 0 0 0 0 0 0 0 0 0 0 0 0 0 0 0 0 0 0 0 0 0 0 0 0 0 0 0 0 0 0 0 0 0 0 0 0 0
0 0 0 0 0 0 0 0 0 0 0 0 0 0 0 0 0 0 0 0 0 0 0 0 0 0 0 0 0 0 0 0 0 0 0 0 0 0
0 0 0 0 0 0 0 0 0 0 0 0 0 0 0 0 0 0 0 0 0 0 0 0 0 0 0 0 0 0 0 0 0 0 0 0 0 0
0 0 0 0 0 0 0 0 0 0 0 0 0 0 0 0 0 0 0 0 0 0 0 0 0 0 0 0 0 0 0 0 0 0 0 0 0 0
0 0 0 0 0 0 0 0 0 0 0 0 0 0 0 0 0 0 0 0 0 0 0 0 0 0 0 0 0 0 0 0 0 0 0 0 0 0
0 0 0 0 0 0 0 0 0 0 0 0 0 0 0 0 0 0 0 0 0 0 0 0 0 0 0 0 0 0 0 0 0 0 0 0 0 0
0 0 0 0 0 0 0 0 0 0 0 0 0 0 0 0 0 0 0 0 0 0 0 0 0 0 0 0 0 0 0 0 0 0 0 0 0 0
0 0 0 0 0 0 0 0 0 0 0 0 0 0 0 0 0 0 0 0 0 0 0 0 0 0 0 0 0 0 0 0 0 0 0 0 0 0
Wind_Speed
2 2 2 1 1 1 1 2 2 2 3 2 1 1 1 1 1 1 1 2 3 3 4 4 4 5 6 6 7 7 8 8 8 9 9 9 9 9
1 1 2 1 1 1 1 1 2 2 3 2 1 1 1 1 1 1 1 2 3 4 5 5 4 5 5 6 7 8 8 8 8 8 9 9 9 9
1 1 2 1 1 1 1 1 1 1 2 2 1 1 1 2 1 1 1 1 2 3 4 5 5 5 5 6 7 7 8 8 8 8 8 9 9 9
1 1 2 1 1 1 1 1 1 1 1 2 2 1 1 2 2 2 2 2 2 3 4 5 5 5 5 6 6 7 7 7 7 7 8 9 9 9
2 2 2 2 2 1 1 1 1 1 1 1 2 1 1 1 1 2 2 2 2 3 4 5 5 5 5 5 6 6 6 6 6 7 8 8 8 8
1 1 2 2 3 3 2 2 1 1 0 1 1 1 1 2 1 1 3 2 3 3 3 4 4 5 6 6 6 6 6 6 7 7 7 8 8 8
1 1 1 1 2 2 2 2 2 1 1 1 1 1 1 1 1 1 2 3 3 1 2 3 2 2 3 5 5 6 6 6 7 7 8 8 8 9
1 1 1 1 1 2 2 2 2 3 3 2 2 2 2 2 1 2 2 2 3 1 2 4 2 2 2 2 5 6 6 6 7 7 8 8 9 9
2 1 1 1 1 0 0 0 1 2 3 3 3 3 3 2 2 2 3 3 4 2 2 4 2 3 2 3 6 6 6 7 8 8 9 9 10 10
1 2 1 1 1 1 1 0 0 1 2 2 2 2 2 1 2 3 3 4 4 2 1 3 2 3 3 3 5 6 7 8 8 9 9 10 10 10
1 1 1 2 2 2 1 1 1 1 1 1 2 2 2 2 1 0 1 1 3 2 0 1 2 3 3 3 3 6 7 8 9 9 10 10 10 9
1 1 1 2 2 2 2 2 2 2 1 1 1 2 1 1 1 1 2 2 2 2 0 0 1 2 3 3 2 3 3 6 9 10 10 10 9 5
1 1 1 2 3 3 2 1 3 2 1 1 1 1 1 0 1 1 1 2 3 3 1 0 1 1 2 3 3 3 2 3 4 5 8 10 10 7
2 1 1 3 2 2 2 1 2 2 1 1 1 1 1 1 1 1 2 2 3 3 2 1 2 2 2 3 4 3 3 3 3 4 4 7 8 9
2 2 3 3 2 1 1 2 2 0 1 1 1 1 1 1 1 1 2 2 2 2 1 1 1 2 2 3 3 3 4 4 3 3 4 4 4 5
1 1 2 2 2 1 1 1 1 0 1 1 1 0 0 0 1 1 1 2 2 2 1 1 1 1 2 3 3 4 3 3 3 4 4 4 4 4
1 0 0 1 1 0 0 0 0 0 0 0 0 0 1 1 1 1 1 1 1 2 2 2 1 1 2 3 3 4 3 3 4 4 4 5 4 4
2 1 1 2 2 1 1 1 1 1 1 1 1 1 1 1 1 1 1 1 1 2 2 2 2 2 2 2 3 3 3 3 4 4 3 5 6 5
2 2 2 2 2 2 2 1 1 1 1 1 2 2 2 2 1 1 1 1 1 2 2 1 1 0 1 4 4 2 3 4 4 4 4 4 6 7
2 2 2 2 2 2 2 2 1 1 1 1 1 2 2 1 1 1 1 1 2 2 2 1 1 1 3 3 3 4 5 4 4 5 5 4 5 8
2 2 2 2 2 2 2 2 2 2 1 1 1 1 1 1 1 2 1 2 2 2 3 3 3 2 1 1 2 4 3 5 6 5 5 5 6 5
2 2 2 2 2 2 2 2 2 2 2 2 1 1 1 1 2 2 2 2 2 2 3 3 2 1 1 2 4 5 5 5 7 10 9 7 5 4
3 3 2 2 2 2 2 2 3 2 2 2 2 2 2 1 2 2 2 2 2 2 2 3 2 1 2 2 4 5 6 6 5 5 6 9 11 12
Wind_Direction
219 227 239 250 254 245 224 207 200 230 249 241 244 250 253 236 276 271 295 306 303 314 319 319 324 325 327 321 314 308 305 305 306 309 307 305 303 304
220 224 241 251 250 254 243 240 232 217 235 245 245 284 297 281 277 281 287 305 310 316 321 317 316 320 323 322 319 313 306 302 304 307 306 303 302 303
225 232 251 257 240 253 261 268 266 236 237 268 269 293 314 305 309 299 299 297 296 304 309 314 310 315 320 322 319 319 312 306 306 307 307 304 302 300
215 219 243 239 235 234 233 252 260 268 223 256 269 279 283 285 296 294 302 300 294 303 305 307 305 313 317 318 319 322 322 315 311 311 310 305 302 298
221 225 230 214 228 236 225 229 252 272 247 230 264 285 303 318 321 320 317 303 301 302 303 302 300 307 310 315 318 321 322 323 321 320 319 311 306 302
232 237 240 224 228 228 224 223 216 224 231 227 257 290 307 331 336 319 314 307 298 306 298 296 296 300 302 306 310 313 315 316 316 317 316 317 316 313
239 257 270 275 258 235 226 213 199 203 213 224 238 264 269 319 299 296 292 305 296 294 302 291 287 284 290 296 301 307 313 315 316 316 316 316 316 314
227 250 270 275 293 265 262 230 211 203 208 216 233 242 254 271 290 288 292 305 294 301 309 290 276 271 276 277 304 308 311 316 316 312 313 314 313 312
217 221 251 290 268 208 95 309 267 251 227 220 225 240 253 252 264 274 278 279 271 290 307 280 275 272 279 291 297 299 307 314 313 310 310 310 309 308
225 219 220 224 239 212 163 136 297 279 261 236 222 239 253 255 238 251 269 286 287 282 281 272 285 283 296 284 285 295 309 312 311 312 312 311 310 308
268 247 234 225 226 215 181 201 289 299 321 284 271 274 289 296 293 314 308 305 290 278 306 268 292 307 298 281 291 307 315 315 315 317 317 314 311 310
283 271 263 261 250 245 216 201 247 268 288 312 293 303 297 295 289 232 230 254 279 272 254 284 275 325 308 299 311 321 316 315 319 320 319 319 318 314
271 275 261 270 270 276 278 241 247 267 260 214 217 253 292 302 300 296 277 249 254 257 256 250 269 289 270 297 307 308 319 323 322 318 319 322 325 323
258 274 273 274 285 301 303 274 282 287 194 173 185 222 260 290 311 308 295 283 267 261 263 254 249 262 277 289 294 312 324 319 319 317 320 325 325 324
258 260 277 290 303 305 309 322 324 237 176 185 212 234 246 276 309 317 313 302 291 286 282 278 269 273 260 264 287 300 313 314 315 318 322 325 323 321
270 270 284 288 300 326 3 332 333 155 179 208 223 233 218 229 241 272 298 311 309 311 339 338 304 281 272 271 273 286 296 299 317 318 317 317 317 313
229 242 254 241 240 230 38 356 9 95 194 224 201 237 249 251 269 282 271 291 273 292 319 339 331 284 264 266 274 281 293 298 302 315 318 315 311 307
222 209 226 225 229 222 212 223 216 219 215 203 209 224 239 251 267 279 274 253 271 281 291 313 332 342 345 316 265 274 290 296 307 313 312 310 308 310
234 217 223 226 227 217 211 217 230 233 220 209 217 225 228 231 236 251 257 274 284 288 288 289 291 291 307 302 306 289 293 302 309 309 304 298 296 301
225 225 225 221 220 217 212 213 221 222 213 215 220 225 221 219 227 238 248 255 273 290 293 294 276 248 240 259 278 295 298 287 296 300 302 302 295 298
228 229 225 220 223 221 214 209 207 210 213 211 221 225 218 211 228 240 248 253 259 273 276 278 280 286 273 297 290 291 295 298 303 299 302 307 310 310
231 231 230 224 220 216 210 202 201 200 202 208 219 226 224 215 222 229 237 247 257 262 274 285 290 289 250 245 272 287 300 310 311 310 304 292 291 291
230 231 229 224 222 217 210 207 211 211 207 206 211 210 205 217 226 225 230 236 247 261 278 292 298 279 262 256 271 285 297 307 314 317 309 304 298 291